Regional Weather Roundup
Issued by NWS Albany, NY

Home | Current Version | Previous Version | Text Only | Print | Product List | Glossary On
Versions: 1 2 3 4 5 6 7 8 9 10 11 12 13 14 15 16 17 18 19 20 21 22 23 24 25 26 27 28
000
ASUS41 KALY 222110
RWRALY

NEW YORK STATE HOURLY WEATHER ROUNDUP
NATIONAL WEATHER SERVICE ALBANY NY
500 PM EDT SAT JUL 22 2017

NOTE: "FAIR" INDICATES FEW OR NO CLOUDS BELOW 12,000 FEET WITH NO
SIGNIFICANT WEATHER AND/OR NO OBSTRUCTIONS TO VISIBILITY.

NYZ032-033-038>043-046>054-057>066-NYZ062>081-082-084-222200-
EAST


CITY           SKY/WX    TMP DP  RH WIND       PRES   REMARKS
ALBANY         LGT RAIN  75  65  70 N6        29.83F
GLENS FALLS    MOSUNNY   76  67  73 S8        29.80F
POUGHKEEPSIE   PTSUNNY   81  62  52 NE3       29.79F
NEWBURGH       PTSUNNY   82  66  57 CALM      29.83F
MONTGOMERY     CLOUDY    83  67  58 CALM      29.80F
ISLIP          PTSUNNY   84  65  52 S9        29.79F
NEW YORK CITY  CLOUDY    88  66  48 NE12      29.77F HX  90
CENTRAL PARK   PTSUNNY   89  62  40 CALM      29.80F
$$

NYZ005>009-017-018-044>046-055-056-222200-
CENTRAL


CITY           SKY/WX    TMP DP  RH WIND       PRES   REMARKS
FULTON         LGT RAIN  73  67  81 CALM      29.83F
SYRACUSE       CLOUDY    74  66  76 NE7       29.81F
ROME           LGT RAIN  73  67  81 CALM      29.84F
ELMIRA         CLOUDY    79  68  69 NE7       29.80F
BINGHAMTON     CLOUDY    71  64  78 E6        29.86F
$$

NYZ026>034-041>043-087-222200-
NORTH


CITY           SKY/WX    TMP DP  RH WIND       PRES   REMARKS
WATERTOWN      CLOUDY    74  66  76 CALM      29.82F
FORT DRUM      NOT AVBL
OGDENSBURG     FAIR      79  64  59 NE6       29.81F
MASSENA        CLOUDY    78  59  51 N7        29.83F
SARANAC LAKE   PTSUNNY   74  61  63 VRB5      29.85F
PLATTSBURGH    CLOUDY    74  57  55 NE10      29.82F
$$

NYZ001>004-010>016-019>021-085-222200-
WEST


CITY           SKY/WX    TMP DP  RH WIND       PRES   REMARKS
NIAGARA FALLS  CLOUDY    79  62  56 E6        29.80F
BUFFALO        CLOUDY    76  62  62 NE7       29.80F
DUNKIRK        CLOUDY    77  70  79 NE6       29.79F
JAMESTOWN      CLOUDY    73  64  73 E5        29.82F
WELLSVILLE     CLOUDY    76  66  71 E6        29.87F
ROCHESTER      CLOUDY    78  60  53 CALM      29.81F
PENN YAN       MOSUNNY   74  62  66 N5        29.84F
$$

             KEY
       WCI = WIND CHILL INDEX
       VSB = VISIBILITY
       HX  = HEAT INDEX
$$




USA.gov is the U.S. government's official web portal to all federal, state and local government web resources and services.